This is the latest recevied weather packets stored in our database for station/object KF0JHJ. If no packets are shown the sender has not sent any weather packets the latest 10 day(s).
| Time | Temp. | Humidity | Pressure | Rain* | Wind** | Luminosity | Snow |
|---|---|---|---|---|---|---|---|
| 1777529664 | 5° C | 69% | 1015.7 hPa | - | - | 0 W/m² | - |
| 1777529361 | 5° C | 69% | 1015.8 hPa | - | - | 0 W/m² | - |
| 1777529057 | 4.44° C | 70% | 1015.7 hPa | - | - | 0 W/m² | - |
| 1777528752 | 4.44° C | 72% | 1015.5 hPa | - | - | 0 W/m² | - |
| 1777528450 | 4.44° C | 71% | 1015.5 hPa | - | - | 0 W/m² | - |
| 1777528149 | 5° C | 69% | 1015.7 hPa | - | - | 0 W/m² | - |
| 1777527845 | 5° C | 69% | 1015.7 hPa | - | - | 0 W/m² | - |
| 1777527540 | 5° C | 69% | 1015.6 hPa | - | - | 0 W/m² | - |
| 1777527236 | 5.56° C | 69% | 1015.6 hPa | - | - | 0 W/m² | - |
| 1777526932 | 5.56° C | 68% | 1015.8 hPa | - | - | 0 W/m² | - |
| 1777526627 | 6.11° C | 66% | 1015.7 hPa | - | - | 0 W/m² | - |
| 1777526323 | 6.11° C | 64% | 1015.2 hPa | - | - | 0 W/m² | - |
| 1777526019 | 6.67° C | 63% | 1015.5 hPa | - | - | 0 W/m² | - |
| 1777525716 | 6.67° C | 62% | 1015.5 hPa | - | - | 0 W/m² | - |
| 1777525413 | 6.67° C | 65% | 1015.2 hPa | - | - | 0 W/m² | - |
| 1777525108 | 6.11° C | 66% | 1015.4 hPa | - | - | 0 W/m² | - |
| 1777524806 | 6.67° C | 66% | 1015.3 hPa | - | - | 0 W/m² | - |
| 1777524504 | 6.67° C | 66% | 1015.5 hPa | - | - | 0 W/m² | - |
| 1777524201 | 6.67° C | 67% | 1015.3 hPa | - | - | 0 W/m² | - |
| 1777523896 | 6.67° C | 66% | 1015.5 hPa | - | - | 0 W/m² | - |
| 1777523594 | 6.67° C | 66% | 1015.4 hPa | - | - | 0 W/m² | - |
| 1777523289 | 6.67° C | 66% | 1015.1 hPa | - | - | 0 W/m² | - |
| 1777522985 | 7.22° C | 65% | 1015.4 hPa | - | - | 0 W/m² | - |
| 1777522683 | 7.22° C | 65% | 1015.4 hPa | - | - | 0 W/m² | - |
| 1777522379 | 7.22° C | 65% | 1015.3 hPa | - | - | 0 W/m² | - |
* Rain since midnight (hover to see other rain measurements)
** Current wind speed in m/s (hover to see current wind gust speed)